PUA1502 SACO-SULS

Flight info

Callsign PUA1502
Flight time 1h 16m
Altitude 29000
Route GENAS1C GENAS UW6 PAR UL417 CRR
Aircraft A320/M-SDE3FGHIRWY/LB1

Departure

Time 2026-05-04 12:50
Airport Ingeniero Aeronáutico Ambrosio L.V. Taravella International Airport (SACO)

Arrival

Time 2026-05-04 14:07
Airport Capitan Corbeta CA Curbelo International Airport (SULS)
Time Latitude Longitude Altitude Speed Heading
2026-05-04 12:26 -31.31683 -64.21156 1620 ft 0 kts 303°
2026-05-04 12:42 -31.31693 -64.21136 1623 ft 4 kts 301°
2026-05-04 12:42 -31.31704 -64.21110 1623 ft 4 kts 260°
2026-05-04 12:42 -31.31707 -64.21101 1623 ft 1 kts 164°
2026-05-04 12:43 -31.31706 -64.21101 1623 ft 0 kts 164°
2026-05-04 12:46 -31.31715 -64.21098 1621 ft 2 kts 156°
2026-05-04 12:46 -31.31733 -64.21083 1620 ft 4 kts 142°
2026-05-04 12:46 -31.31761 -64.21058 1621 ft 6 kts 142°
2026-05-04 12:47 -31.31800 -64.21029 1615 ft 7 kts 158°
2026-05-04 12:47 -31.31856 -64.21023 1620 ft 9 kts 180°
2026-05-04 12:47 -31.31924 -64.21024 1616 ft 11 kts 180°
2026-05-04 12:47 -31.32003 -64.21026 1617 ft 12 kts 181°
2026-05-04 12:48 -31.32093 -64.21026 1620 ft 14 kts 180°
2026-05-04 12:48 -31.32197 -64.21026 1614 ft 16 kts 180°
2026-05-04 12:48 -31.32312 -64.21022 1615 ft 17 kts 179°
2026-05-04 12:48 -31.32422 -64.20992 1615 ft 17 kts 134°
2026-05-04 12:49 -31.32441 -64.20855 1619 ft 17 kts 88°
2026-05-04 12:49 -31.32413 -64.20812 1612 ft 0 kts 350°
2026-05-04 12:49 -31.32206 -64.20820 1619 ft 64 kts 360°
2026-05-04 12:50 -31.31567 -64.20827 1619 ft 117 kts 359°
2026-05-04 12:50 -31.30603 -64.20844 1627 ft 157 kts 359°
2026-05-04 12:50 -31.29537 -64.20872 2218 ft 151 kts 357°
2026-05-04 12:50 -31.28480 -64.20910 2783 ft 155 kts
2026-05-04 12:51 -31.27393 -64.20620 3072 ft 174 kts 23°
2026-05-04 12:51 -31.26347 -64.19751 3275 ft 197 kts 47°
2026-05-04 12:51 -31.25522 -64.18347 3509 ft 216 kts 57°
2026-05-04 12:51 -31.24712 -64.16830 3918 ft 225 kts 61°
2026-05-04 12:52 -31.24232 -64.15098 4540 ft 225 kts 85°
2026-05-04 12:52 -31.24187 -64.13279 5170 ft 225 kts 90°
2026-05-04 12:52 -31.24159 -64.11452 5783 ft 225 kts 89°
2026-05-04 12:52 -31.24138 -64.09629 6392 ft 224 kts 90°
2026-05-04 12:53 -31.24128 -64.07762 6756 ft 236 kts 90°
2026-05-04 12:53 -31.24120 -64.05779 7098 ft 253 kts 90°
2026-05-04 12:53 -31.24112 -64.03653 7556 ft 268 kts 90°
2026-05-04 12:53 -31.24279 -64.01459 8135 ft 276 kts 103°
2026-05-04 12:54 -31.24775 -63.99254 8724 ft 285 kts 108°
2026-05-04 12:54 -31.25378 -63.97015 9322 ft 293 kts 109°
2026-05-04 12:54 -31.26024 -63.94729 9918 ft 300 kts 110°
2026-05-04 12:54 -31.26460 -63.93183 10284 ft 304 kts 110°
2026-05-04 12:55 -31.27120 -63.90804 10851 ft 311 kts 109°
2026-05-04 12:55 -31.28000 -63.87528 11614 ft 320 kts 109°
2026-05-04 12:55 -31.28435 -63.85873 12000 ft 324 kts 109°
2026-05-04 12:55 -31.29094 -63.83336 12592 ft 329 kts 109°
2026-05-04 12:56 -31.29988 -63.79879 13404 ft 335 kts 110°
2026-05-04 12:56 -31.30436 -63.78139 13805 ft 338 kts 110°
2026-05-04 12:56 -31.31118 -63.75491 14355 ft 342 kts 110°
2026-05-04 12:56 -31.31808 -63.72813 14914 ft 346 kts 110°
2026-05-04 12:57 -31.32501 -63.70111 15483 ft 349 kts 110°
2026-05-04 12:57 -31.33198 -63.67382 16066 ft 352 kts 110°
2026-05-04 12:57 -31.33900 -63.64632 16656 ft 354 kts 110°
2026-05-04 12:57 -31.34608 -63.61861 17258 ft 356 kts 110°
2026-05-04 12:58 -31.35311 -63.59114 17866 ft 358 kts 110°
2026-05-04 12:58 -31.36023 -63.56318 18456 ft 359 kts 110°
2026-05-04 12:58 -31.36735 -63.53522 19003 ft 360 kts 110°
2026-05-04 12:58 -31.37452 -63.50710 19561 ft 360 kts 111°
2026-05-04 12:59 -31.38168 -63.47901 20126 ft 361 kts 111°
2026-05-04 12:59 -31.38885 -63.45086 20704 ft 361 kts 111°
2026-05-04 12:59 -31.39596 -63.42280 21291 ft 360 kts 111°
2026-05-04 12:59 -31.40302 -63.39478 21895 ft 358 kts 111°
2026-05-04 13:00 -31.41005 -63.36688 22490 ft 357 kts 111°
2026-05-04 13:00 -31.41715 -63.33885 22851 ft 364 kts 111°
2026-05-04 13:00 -31.42444 -63.31012 23121 ft 373 kts 111°
2026-05-04 13:00 -31.43180 -63.28105 23385 ft 382 kts 111°
2026-05-04 13:01 -31.43942 -63.25087 23635 ft 390 kts 111°
2026-05-04 13:01 -31.44715 -63.22013 23863 ft 399 kts 111°
2026-05-04 13:01 -31.45505 -63.18870 24092 ft 407 kts 111°
2026-05-04 13:01 -31.46306 -63.15655 24322 ft 416 kts 109°
2026-05-04 13:02 -31.46884 -63.12291 24552 ft 426 kts 103°
2026-05-04 13:02 -31.47348 -63.08877 24779 ft 434 kts 103°
2026-05-04 13:02 -31.47833 -63.05362 25010 ft 441 kts 103°
2026-05-04 13:02 -31.48333 -63.01784 25255 ft 448 kts 103°
2026-05-04 13:03 -31.48841 -62.98154 25489 ft 455 kts 103°
2026-05-04 13:03 -31.49353 -62.94475 25729 ft 461 kts 103°
2026-05-04 13:03 -31.49873 -62.90741 25974 ft 467 kts 103°
2026-05-04 13:03 -31.50397 -62.86960 26218 ft 473 kts 103°
2026-05-04 13:04 -31.50925 -62.83127 26467 ft 479 kts 103°
2026-05-04 13:04 -31.51446 -62.79308 26707 ft 484 kts 103°
2026-05-04 13:04 -31.51979 -62.75399 26955 ft 488 kts 103°
2026-05-04 13:04 -31.52514 -62.71462 27210 ft 490 kts 103°
2026-05-04 13:05 -31.53051 -62.67514 27467 ft 492 kts 103°
2026-05-04 13:05 -31.53589 -62.63539 27728 ft 494 kts 103°
2026-05-04 13:05 -31.54128 -62.59561 27985 ft 495 kts 103°
2026-05-04 13:05 -31.54668 -62.55572 28252 ft 497 kts 103°
2026-05-04 13:06 -31.55211 -62.51555 28520 ft 499 kts 103°
2026-05-04 13:06 -31.55752 -62.47536 28782 ft 501 kts 103°
2026-05-04 13:06 -31.56292 -62.43499 28952 ft 501 kts 103°
2026-05-04 13:07 -31.57346 -62.35508 28981 ft 493 kts 103°
2026-05-04 13:07 -31.58396 -62.27578 28985 ft 492 kts 104°
2026-05-04 13:08 -31.59439 -62.19706 28988 ft 492 kts 104°
2026-05-04 13:08 -31.60484 -62.11727 28994 ft 492 kts 104°
2026-05-04 13:09 -31.61513 -62.03852 28995 ft 492 kts 104°
2026-05-04 13:09 -31.62555 -61.95915 28999 ft 492 kts 104°
2026-05-04 13:10 -31.63593 -61.87984 29009 ft 492 kts 104°
2026-05-04 13:10 -31.64617 -61.80046 29011 ft 492 kts 104°
2026-05-04 13:11 -31.65634 -61.72106 29018 ft 492 kts 104°
2026-05-04 13:11 -31.66639 -61.64170 29022 ft 492 kts 104°
2026-05-04 13:12 -31.67636 -61.56230 29019 ft 492 kts 104°
2026-05-04 13:12 -31.68650 -61.48289 29024 ft 491 kts 104°
2026-05-04 13:13 -31.69655 -61.40413 29024 ft 491 kts 104°
2026-05-04 13:13 -31.70652 -61.32474 29027 ft 492 kts 104°
2026-05-04 13:14 -31.71628 -61.24530 29031 ft 492 kts 103°
2026-05-04 13:14 -31.72602 -61.16599 29021 ft 492 kts 103°
2026-05-04 13:15 -31.73583 -61.08642 29021 ft 492 kts 103°
2026-05-04 13:15 -31.74562 -61.00689 29012 ft 492 kts 103°
2026-05-04 13:16 -31.75527 -60.92782 29010 ft 492 kts 103°
2026-05-04 13:16 -31.76493 -60.84820 29009 ft 492 kts 103°
2026-05-04 13:17 -31.77452 -60.76903 29012 ft 493 kts 103°
2026-05-04 13:17 -31.78412 -60.68934 29020 ft 493 kts 103°
2026-05-04 13:18 -31.79363 -60.60951 29015 ft 493 kts 103°
2026-05-04 13:18 -31.80427 -60.53006 29009 ft 488 kts 110°
2026-05-04 13:19 -31.82899 -60.45745 29009 ft 471 kts 128°
2026-05-04 13:19 -31.86697 -60.39604 29009 ft 462 kts 136°
2026-05-04 13:20 -31.90640 -60.33613 29013 ft 463 kts 136°
2026-05-04 13:20 -31.94568 -60.27601 29021 ft 463 kts 136°
2026-05-04 13:21 -31.98505 -60.21582 29028 ft 464 kts 136°
2026-05-04 13:21 -32.02440 -60.15565 29031 ft 464 kts 136°
2026-05-04 13:22 -32.06379 -60.09542 29036 ft 464 kts 136°
2026-05-04 13:22 -32.10283 -60.03551 29035 ft 464 kts 135°
2026-05-04 13:23 -32.14212 -59.97506 29037 ft 464 kts 135°
2026-05-04 13:23 -32.18140 -59.91456 29036 ft 465 kts 135°
2026-05-04 13:24 -32.22070 -59.85407 29042 ft 464 kts 135°
2026-05-04 13:24 -32.26008 -59.79353 29043 ft 464 kts 135°
2026-05-04 13:25 -32.31880 -59.70263 29039 ft 464 kts 135°
2026-05-04 13:25 -32.35791 -59.64189 29037 ft 464 kts 135°
2026-05-04 13:26 -32.39708 -59.58117 29036 ft 464 kts 135°
2026-05-04 13:26 -32.43622 -59.52045 29039 ft 464 kts 135°
2026-05-04 13:27 -32.47529 -59.45959 29034 ft 464 kts 135°
2026-05-04 13:27 -32.51408 -59.39904 29041 ft 464 kts 135°
2026-05-04 13:28 -32.55303 -59.33806 29040 ft 465 kts 135°
2026-05-04 13:28 -32.59199 -59.27690 29038 ft 465 kts 135°
2026-05-04 13:29 -32.63092 -59.21565 29044 ft 465 kts 135°
2026-05-04 13:29 -32.66988 -59.15442 29047 ft 465 kts 135°
2026-05-04 13:30 -32.70869 -59.09308 29051 ft 465 kts 134°
2026-05-04 13:30 -32.74743 -59.03163 29049 ft 465 kts 134°
2026-05-04 13:31 -32.78620 -58.97015 29045 ft 465 kts 134°
2026-05-04 13:31 -32.82475 -58.90911 29051 ft 465 kts 134°
2026-05-04 13:32 -32.86355 -58.84760 29048 ft 465 kts 134°
2026-05-04 13:32 -32.90226 -58.78601 29049 ft 465 kts 134°
2026-05-04 13:33 -32.94092 -58.72430 29046 ft 465 kts 134°
2026-05-04 13:33 -32.97951 -58.66255 29046 ft 465 kts 134°
2026-05-04 13:34 -33.01835 -58.60098 29044 ft 464 kts 135°
2026-05-04 13:34 -33.05983 -58.54256 29043 ft 460 kts 139°
2026-05-04 13:35 -33.12387 -58.45789 29047 ft 461 kts 139°
2026-05-04 13:36 -33.16621 -58.40030 29049 ft 462 kts 138°
2026-05-04 13:36 -33.20811 -58.34218 29032 ft 462 kts 137°
2026-05-04 13:37 -33.24998 -58.28395 29032 ft 462 kts 137°
2026-05-04 13:37 -33.29197 -58.22574 29040 ft 463 kts 138°
2026-05-04 13:38 -33.33407 -58.16754 29043 ft 463 kts 138°
2026-05-04 13:38 -33.37620 -58.10920 29039 ft 463 kts 138°
2026-05-04 13:39 -33.41832 -58.05086 29050 ft 464 kts 137°
2026-05-04 13:39 -33.46043 -57.99232 29043 ft 464 kts 137°
2026-05-04 13:40 -33.50248 -57.93369 29034 ft 464 kts 137°
2026-05-04 13:40 -33.54421 -57.87534 29034 ft 464 kts 137°
2026-05-04 13:41 -33.58622 -57.81644 29030 ft 465 kts 137°
2026-05-04 13:41 -33.62817 -57.75745 29039 ft 465 kts 137°
2026-05-04 13:42 -33.69116 -57.66870 29040 ft 466 kts 137°
2026-05-04 13:42 -33.73323 -57.60937 29048 ft 466 kts 136°
2026-05-04 13:43 -33.77523 -57.55010 29052 ft 466 kts 136°
2026-05-04 13:43 -33.81723 -57.49074 29053 ft 466 kts 136°
2026-05-04 13:44 -33.85905 -57.43145 29048 ft 466 kts 136°
2026-05-04 13:44 -33.90058 -57.37244 29050 ft 465 kts 136°
2026-05-04 13:45 -33.94246 -57.31306 29050 ft 465 kts 136°
2026-05-04 13:45 -33.98435 -57.25368 29051 ft 465 kts 136°
2026-05-04 13:46 -34.02328 -57.19106 29051 ft 472 kts 126°
2026-05-04 13:46 -34.05641 -57.12280 29047 ft 472 kts 125°
2026-05-04 13:47 -34.08935 -57.05418 29043 ft 472 kts 125°
2026-05-04 13:47 -34.12226 -56.98555 29049 ft 472 kts 125°
2026-05-04 13:48 -34.15519 -56.91691 29047 ft 472 kts 125°
2026-05-04 13:48 -34.18800 -56.84843 28702 ft 469 kts 125°
2026-05-04 13:49 -34.20428 -56.81444 28361 ft 467 kts 125°
2026-05-04 13:49 -34.22045 -56.78066 27816 ft 463 kts 125°
2026-05-04 13:49 -34.23629 -56.74750 27270 ft 461 kts 125°
2026-05-04 13:49 -34.25224 -56.71407 26704 ft 458 kts 125°
2026-05-04 13:50 -34.26296 -56.69160 26342 ft 456 kts 125°
2026-05-04 13:50 -34.26904 -56.67879 26138 ft 455 kts 125°
2026-05-04 13:50 -34.28472 -56.64577 25606 ft 452 kts 125°
2026-05-04 13:50 -34.30030 -56.61297 25085 ft 450 kts 125°
2026-05-04 13:51 -34.31588 -56.58019 24576 ft 447 kts 124°
2026-05-04 13:51 -34.33135 -56.54765 24056 ft 445 kts 124°
2026-05-04 13:51 -34.34673 -56.51521 23566 ft 444 kts 124°
2026-05-04 13:51 -34.36205 -56.48284 23015 ft 441 kts 124°
2026-05-04 13:52 -34.39114 -56.42133 22014 ft 437 kts 124°
2026-05-04 13:52 -34.40615 -56.38953 21503 ft 434 kts 124°
2026-05-04 13:52 -34.42112 -56.35782 21009 ft 432 kts 124°
2026-05-04 13:53 -34.43575 -56.32680 20515 ft 429 kts 124°
2026-05-04 13:53 -34.45047 -56.29551 20085 ft 425 kts 123°
2026-05-04 13:53 -34.46504 -56.26455 19657 ft 421 kts 123°
2026-05-04 13:54 -34.49377 -56.20347 18816 ft 413 kts 123°
2026-05-04 13:54 -34.50792 -56.17336 18397 ft 409 kts 123°
2026-05-04 13:54 -34.53578 -56.11382 17466 ft 403 kts 123°
2026-05-04 13:55 -34.54746 -56.08880 17078 ft 400 kts 123°
2026-05-04 13:55 -34.57470 -56.03066 16190 ft 393 kts 123°
2026-05-04 13:55 -34.58812 -56.00197 15721 ft 390 kts 123°
2026-05-04 13:56 -34.60144 -55.97345 15296 ft 386 kts 123°
2026-05-04 13:56 -34.61464 -55.94517 14884 ft 383 kts 122°
2026-05-04 13:56 -34.64051 -55.88966 14183 ft 373 kts 122°
2026-05-04 13:57 -34.64895 -55.87159 13955 ft 370 kts 122°
2026-05-04 13:57 -34.66154 -55.84456 13583 ft 366 kts 122°
2026-05-04 13:58 -34.70254 -55.75620 12316 ft 356 kts 122°
2026-05-04 13:58 -34.72665 -55.70416 11573 ft 351 kts 121°
2026-05-04 13:58 -34.73472 -55.68673 11330 ft 349 kts 121°
2026-05-04 13:59 -34.74643 -55.66142 10977 ft 347 kts 121°
2026-05-04 13:59 -34.75823 -55.63591 10605 ft 345 kts 121°
2026-05-04 13:59 -34.77960 -55.58962 9950 ft 323 kts 120°
2026-05-04 14:00 -34.79040 -55.56618 9563 ft 312 kts 120°
2026-05-04 14:00 -34.81096 -55.52157 8791 ft 294 kts 120°
2026-05-04 14:00 -34.82083 -55.50015 8412 ft 286 kts 120°
2026-05-04 14:01 -34.83043 -55.47930 8041 ft 280 kts 120°
2026-05-04 14:01 -34.83985 -55.45877 7639 ft 275 kts 120°
2026-05-04 14:01 -34.85799 -55.41931 7016 ft 259 kts 119°
2026-05-04 14:02 -34.86668 -55.40037 6687 ft 253 kts 119°
2026-05-04 14:02 -34.87508 -55.38206 6450 ft 243 kts 119°
2026-05-04 14:02 -34.88313 -55.36448 6211 ft 231 kts 119°
2026-05-04 14:02 -34.89080 -55.34772 5846 ft 223 kts 119°
2026-05-04 14:03 -34.89813 -55.33167 5484 ft 217 kts 119°
2026-05-04 14:03 -34.90453 -55.31513 5057 ft 216 kts 105°
2026-05-04 14:03 -34.90648 -55.29704 4516 ft 218 kts 84°
2026-05-04 14:03 -34.90351 -55.27904 3931 ft 217 kts 68°
2026-05-04 14:04 -34.89423 -55.24386 2785 ft 217 kts 68°
2026-05-04 14:04 -34.88967 -55.22644 2193 ft 215 kts 67°
2026-05-04 14:04 -34.88518 -55.20915 1779 ft 209 kts 66°
2026-05-04 14:05 -34.87730 -55.17831 1269 ft 174 kts 66°
2026-05-04 14:05 -34.87390 -55.16481 1018 ft 160 kts 67°
2026-05-04 14:05 -34.87073 -55.15226 840 ft 151 kts 67°
2026-05-04 14:06 -34.86759 -55.14046 658 ft 144 kts 65°
2026-05-04 14:06 -34.86433 -55.12913 447 ft 141 kts 68°
2026-05-04 14:06 -34.86151 -55.11791 257 ft 137 kts 64°
2026-05-04 14:06 -34.85859 -55.10715 107 ft 130 kts 63°
2026-05-04 14:07 -34.85603 -55.09800 101 ft 87 kts 73°
2026-05-04 14:07 -34.85517 -55.09426 103 ft 21 kts 109°
2026-05-04 14:07 -34.85655 -55.09395 102 ft 21 kts 187°
2026-05-04 14:07 -34.85723 -55.09543 101 ft 22 kts 253°
2026-05-04 14:08 -34.85766 -55.09727 101 ft 24 kts 251°
2026-05-04 14:08 -34.85836 -55.09836 100 ft 7 kts 171°
2026-05-04 14:08 -34.85888 -55.09845 100 ft 27 kts 211°
2026-05-04 14:08 -34.85950 -55.09858 100 ft 0 kts 161°